THORAD DELTA 1 DEB, 18539

Orbit data source: Space-Track

THORAD DELTA 1 DEB, 18539 is space debris in SSO originally from a launch on Fri, 15 Nov 1974 UTC launched from the Air Force Western Test Range (AFWTR). Debris objects in space refer to the collection of defunct objects orbiting the Earth. Examples of debris include non-operational satellites, rocket bodies, and fragments generated from explosions, collisions, or faulty payload assembly.

Loading next visibility...
Identifier
18539, 1974-089EZ
Orbit
SSO
Country
Flag of USUS
Related business
Manufacturer
Unknown
Mission
Spacecraft
Bus & Motor
Unknown
Mass
Unknown
Launch date (UTC)
1974-11-15 (51 years ago)
Launch vehicle
Unknown
Launch site
Air Force Western Test Range (AFWTR)
Object type
Payload
Rocket body
Debris
Shape & HBR
Unknown shape, 0.1 m
Radar Cross Section
Small (<0.1 m²)

Expand to show TLE details & history
Last TLE update: 3 days ago

TLE from 3 days ago
0 THORAD DELTA 1 DEB
1 18539U 74089EZ  25285.71110017  .00000089  00000-0  82536-3 0  9998
2 18539 101.5671 201.4001 0024016 235.4324 152.6563 12.54117345561567
Epoch: 2025-10-12T17:03Z
TLE epoch observation values (Epoch: 2025-10-12T17:03:59.054Z)
Latitude
27.63181°
Longitude
-82.24073°
Altitude
1,467.132 km
Speed
7.124 km/s
True Right ascension
13h 01m 07s
True Declination
27° 30' 13"
Sunlit
Object was in daylight at epoch
Visualization orbit readout
Latitude
Unknown
Longitude
Unknown
Altitude
Unknown
Speed
Unknown
Apparent Right ascension
Unknown
Apparent Declination
Unknown
Sunlit
N/A
Visualization observer readout
Local Sidereal Time
00:34:21
Azimuth
Unknown
Elevation
Unknown
Doppler factor
Unknown
Orbital elements
Apogee altitude
1,463.639 km
Perigee altitude
1,426.063 km
Semi-major axis
7,822.988 km
Eccentricity
0.0024
Inclination
101.5671°
RAAN
201.4001°
Arg. of periapsis
235.4324°
True anomaly
152.78237°
Mean anomaly
152.6563°
Eccentric anomaly
152.71937°
Mean motion
3.13678 °/min
Orbital period
114.77 mins
BSTAR
0.00082536
Loading maneuver chart data...
Computing Atmospheric mass density...

Documentation

Showing up to 5 results
|